Glasgow, MT

6:08 PM MDT on September 24, 2016 (GMT -0600)
Wokal-Glasgow International

Weather History for KGGW - January, 2014

Change the Weather History Date:

Saturday, January 4, 2014

  Actual Average Record
Temperature  
Mean Temperature 2 °F 13 °F  
Max Temperature 10 °F 23 °F 55 °F (2008)
Min Temperature -6 °F 4 °F -39 °F (1950)
Degree Days  
Heating Degree Days 63 52  
Month to date heating degree days 216 208  
Since 1 July heating degree days 3906 3710  
Cooling Degree Days 0 0  
Month to date cooling degree days 0 0  
Year to date cooling degree days 0 0  
Moisture  
Dew Point -8 °F    
Average Humidity 76    
Maximum Humidity 87    
Minimum Humidity 64    
Precipitation  
Precipitation T in 0.02 in 0.14 in (1915)
Month to date precipitation 0.03 0.06  
Year to date precipitation 0.03 0.06  
Snow  
Snow T in 0.30 in 2.50 in (1982)
Month to date snowfall 0.2 1.3  
Since 1 July snowfall 19.0 15.9  
Snow Depth 4.00 in    
Sea Level Pressure  
Sea Level Pressure 30.40 in    
Wind  
Wind Speed 14 mph (NW)    
Max Wind Speed 30 mph    
Max Gust Speed 38 mph    
Visibility 10 miles    
Events      
T = Trace of Precipitation, MM = Missing Value Source: NWS Daily Summary

Daily Weather History Graph

Daily Weather History Graph

Search for Another Location

Airport or City:

Trip Planner

Search our weather history database for the weather conditions in past years. The results will help you decide how hot, cold, wet, or windy it might be!

Date:

Astronomy

Jan. 04, 2014 Rise Set
Actual Time 7:56 AM MST 4:26 PM MST
Civil Twilight 7:20 AM MST 5:02 PM MST
Nautical Twilight 6:41 AM MST 5:42 PM MST
Astronomical Twilight 6:03 AM MST 6:19 PM MST
Moon 9:44 AM MST (1/4) 9:11 PM MST (1/4)
Length of Visible Light 9h 41m
Length of Day
8h 29m
Waxing Crescent, 16% of the Moon is Illuminated
Jan 4
Waxing Crescent
Jan 7
First Quarter
Jan 15
Full
Jan 23
Last Quarter
Jan 30
New

Hourly Weather History & Observations

Time (MST) Temp. Windchill Dew Point Humidity Pressure Visibility Wind Dir Wind Speed Gust Speed Precip Events Conditions
12:53 AM 8.1 °F -6.2 °F 3.0 °F 80% 30.14 in 10.0 mi WNW 10.4 mph - N/A   Overcast
1:53 AM 6.1 °F -10.9 °F 1.0 °F 80% 30.18 in 10.0 mi NW 13.8 mph - N/A   Mostly Cloudy
2:53 AM 3.9 °F -8.2 °F -0.0 °F 84% 30.23 in 10.0 mi WNW 6.9 mph - N/A   Mostly Cloudy
3:53 AM 1.9 °F -18.1 °F -2.9 °F 80% 30.23 in 10.0 mi NNW 17.3 mph - N/A   Scattered Clouds
4:53 AM 1.9 °F -14.7 °F -5.1 °F 72% 30.26 in 10.0 mi NNW 11.5 mph - N/A   Partly Cloudy
5:53 AM 1.0 °F -14.0 °F -2.9 °F 83% 30.29 in 10.0 mi NW 9.2 mph - N/A   Overcast
6:53 AM 1.9 °F -13.8 °F -4.0 °F 76% 30.32 in 10.0 mi NNW 10.4 mph - N/A   Mostly Cloudy
7:53 AM 1.0 °F -15.8 °F -6.0 °F 72% 30.35 in 10.0 mi NNW 11.5 mph - N/A   Overcast
8:53 AM -0.0 °F -18.0 °F -7.1 °F 72% 30.37 in 10.0 mi NNW 12.7 mph - N/A   Mostly Cloudy
9:53 AM -0.0 °F -18.0 °F -7.1 °F 72% 30.40 in 10.0 mi NNW 12.7 mph - N/A   Overcast
10:53 AM -0.0 °F -18.7 °F -8.0 °F 69% 30.44 in 10.0 mi NW 13.8 mph - N/A   Overcast
11:53 AM -0.0 °F -19.4 °F -8.0 °F 69% 30.44 in 10.0 mi NW 15.0 mph - N/A   Partly Cloudy
12:53 PM -0.0 °F -20.7 °F -9.0 °F 66% 30.44 in 10.0 mi NW 17.3 mph - N/A   Overcast
1:53 PM 1.0 °F -18.7 °F -7.1 °F 69% 30.44 in 10.0 mi NNW 16.1 mph - N/A   Partly Cloudy
2:53 PM -0.0 °F -19.4 °F -8.0 °F 69% 30.46 in 10.0 mi NW 15.0 mph - N/A   Scattered Clouds
3:53 PM -0.0 °F -20.7 °F -9.0 °F 66% 30.48 in 10.0 mi NW 17.3 mph - N/A   Overcast
4:53 PM -2.0 °F -21.2 °F -11.0 °F 66% 30.49 in 10.0 mi WNW 13.8 mph - N/A   Overcast
5:53 PM -5.1 °F -26.6 °F -13.0 °F 69% 30.50 in 10.0 mi NW 16.1 mph - N/A   Mostly Cloudy
6:53 PM -4.0 °F -24.5 °F -11.9 °F 69% 30.51 in 10.0 mi WNW 15.0 mph - N/A   Overcast
7:53 PM -4.0 °F -23.7 °F -13.0 °F 65% 30.51 in 10.0 mi WNW 13.8 mph - N/A   Partly Cloudy
8:53 PM -4.0 °F -25.2 °F -13.0 °F 65% 30.52 in 10.0 mi NW 16.1 mph - N/A   Partly Cloudy
9:53 PM -5.1 °F -29.0 °F -14.1 °F 65% 30.53 in 10.0 mi WNW 20.7 mph - N/A   Mostly Cloudy
10:53 PM -6.0 °F -29.0 °F -15.0 °F 65% 30.54 in 10.0 mi WNW 18.4 mph - N/A   Clear
11:53 PM -5.1 °F -28.4 °F -14.1 °F 65% 30.54 in 10.0 mi WNW 19.6 mph - N/A   Mostly Cloudy